Wind_Speed
34 33 33 31 28 25 23 22 22 21 22 22 23 23 23 23 22 21 19 18 16 16 15 14 14 15 15 14 15 15 15 15 15 15 14 14 14 13 13 13 13 13 13 13
36 35 35 35 32 29 26 24 23 22 21 22 25 27 28 27 25 23 21 19 18 17 16 16 16 16 16 16 16 17 17 16 16 15 15 15 15 15 14 13 14 14 15 14
38 36 36 37 34 32 29 27 26 25 23 23 26 28 29 29 28 25 24 22 19 18 18 18 18 18 18 18 18 18 18 18 17 17 17 17 16 16 16 15 15 15 15 15
40 38 39 36 34 34 33 31 29 28 27 25 27 29 29 30 29 27 25 23 22 20 20 20 20 20 20 20 20 19 19 19 19 19 18 18 18 18 17 17 17 17 17 17
42 41 38 35 34 36 36 35 33 33 30 29 29 30 31 31 29 28 26 27 25 23 22 22 22 23 22 22 21 21 21 22 21 21 21 20 20 20 20 19 19 19 18 18
44 43 41 37 35 37 39 39 37 36 35 33 32 32 32 31 30 28 28 29 28 26 25 24 25 25 25 24 24 23 24 24 24 24 24 23 22 22 21 21 21 21 21 21
47 46 43 39 38 38 40 41 39 39 37 35 34 33 33 33 33 31 31 31 30 30 28 27 27 27 27 27 27 26 26 26 26 26 25 24 24 24 24 24 23 24 24 24
49 47 44 39 38 40 41 41 41 40 39 38 36 36 36 34 34 34 34 34 33 32 30 29 29 30 29 29 29 29 29 29 28 28 27 27 26 26 26 26 26 26 26 26
48 46 43 41 41 41 42 42 42 41 41 40 38 37 36 36 37 36 36 36 36 34 33 32 32 32 31 31 32 32 32 31 30 30 30 30 29 29 29 29 28 28 28 28
47 46 45 44 42 42 43 43 42 43 43 42 41 40 39 39 39 39 39 39 39 37 36 35 35 35 34 34 34 34 33 33 32 32 32 32 32 32 32 32 31 30 30 29
45 45 44 44 43 42 43 43 43 42 43 43 43 42 42 42 42 42 42 42 41 40 39 39 39 39 37 36 36 35 35 34 34 34 34 34 34 34 34 34 33 32 31 31
44 45 44 43 42 42 42 42 42 42 43 43 44 43 42 43 43 44 44 44 44 43 42 42 40 40 39 38 38 37 36 36 36 35 36 36 35 35 35 35 34 33 32 32
43 43 43 42 41 41 41 42 42 42 42 43 43 42 44 45 45 45 45 45 45 44 44 43 42 40 39 39 39 38 38 37 37 37 38 38 37 37 36 36 35 35 34 35
42 41 41 42 41 40 40 40 41 41 40 41 41 41 42 43 44 45 45 45 45 45 44 43 43 41 40 40 39 39 38 37 38 38 39 39 38 38 37 36 36 35 35 36
41 41 41 41 41 42 41 41 40 40 41 41 41 41 41 42 43 45 45 44 44 44 43 43 42 42 41 41 40 40 39 39 39 39 39 39 39 39 38 37 36 36 36 36
43 42 42 43 42 42 42 42 41 41 42 42 42 42 42 43 43 43 43 42 42 42 42 42 41 41 41 41 40 40 39 39 39 39 39 39 39 38 38 37 37 37 37 37
43 43 43 42 43 42 42 43 42 42 41 41 40 40 41 42 42 42 41 41 41 41 42 42 41 41 41 41 40 40 39 39 39 39 38 38 38 38 38 38 38 38 38 38
41 42 42 42 41 42 43 42 43 42 42 41 42 42 42 42 41 41 41 40 40 40 41 41 41 41 40 39 39 39 39 39 39 39 38 38 38 38 38 38 38 38 38 38
38 39 40 41 41 42 42 42 43 43 42 42 42 42 42 41 39 38 38 38 38 38 38 38 39 39 38 38 38 39 39 38 38 37 37 37 36 36 36 37 37 38 38 37
33 35 36 37 39 41 42 43 43 42 40 40 41 40 37 37 37 36 36 36 35 35 36 36 37 37 37 37 37 37 38 37 36 36 36 36 36 36 36 36 36 37 36 36
28 30 31 32 34 35 36 37 37 37 37 36 36 36 35 35 35 35 34 34 34 34 34 34 34 34 34 34 34 34 35 35 35 35 35 35 35 35 35 35 35 35 35 35
25 26 27 28 28 29 30 30 31 32 32 31 31 31 31 31 32 32 32 32 32 31 31 31 31 32 32 32 32 33 33 33 33 33 33 33 33 33 33 34 34 34 34 34
21 22 22 23 24 24 24 25 26 27 27 27 27 27 27 27 28 28 29 29 29 29 30 30 30 29 29 30 30 30 30 30 31 31 32 32 33 33 33 34 33 33 33 33
16 17 18 19 19 20 20 20 20 21 22 22 22 23 23 24 25 26 27 26 26 27 27 28 28 28 27 27 27 28 28 29 29 30 31 31 32 33 33 32 32 31 31 31
12 13 14 16 16 17 17 17 17 17 17 18 19 20 21 22 23 23 23 23 24 24 24 25 26 25 25 25 26 26 27 27 28 29 29 30 31 31 30 30 31 31 32 32
10 11 11 12 13 14 15 15 16 15 16 17 18 18 19 20 20 21 21 21 21 21 22 23 24 24 24 25 25 25 26 26 27 27 27 28 28 29 29 30 30 30 31 31
7 7 8 9 11 12 13 13 14 14 14 14 14 15 16 17 18 18 18 19 19 20 20 21 22 22 22 23 24 25 25 26 26 26 27 27 28 28 29 29 29 30 30 30
Wind_Direction
225 221 223 230 234 236 241 249 253 250 248 248 256 263 271 277 285 290 294 299 306 311 316 322 324 325 327 330 330 330 330 331 332 331 330 328 326 323 314 306 297 292 292 286
229 226 225 229 232 235 238 243 249 250 248 246 250 257 265 273 279 286 288 293 301 305 310 315 317 316 319 323 325 325 326 325 326 325 324 323 322 321 317 311 305 297 295 289
232 231 230 230 232 234 238 242 245 249 250 247 247 252 260 268 275 281 286 288 298 301 305 306 310 310 310 314 316 319 319 320 320 320 318 318 317 318 316 314 309 301 297 293
235 237 236 232 231 234 238 240 243 247 247 248 250 254 258 263 269 275 283 288 294 297 298 299 300 302 303 306 308 311 312 314 316 315 314 313 313 313 310 310 309 304 300 295
238 241 241 235 232 233 236 238 240 245 248 249 251 252 256 262 267 272 281 286 288 291 295 296 296 298 300 302 305 306 308 310 310 310 310 310 309 309 308 306 305 304 301 298
238 241 243 240 236 235 236 239 240 244 248 250 252 253 255 260 265 271 277 282 283 287 290 292 294 295 297 299 300 302 303 304 305 306 306 306 306 308 307 306 304 301 300 298
240 242 243 242 239 238 238 240 241 244 247 248 251 256 258 258 262 268 273 278 281 283 284 287 290 292 294 295 296 297 298 298 299 300 301 302 302 304 304 303 302 300 299 296
240 242 242 240 238 236 238 240 242 243 245 247 249 253 255 257 260 265 270 275 278 280 282 285 287 289 290 292 292 292 293 294 295 297 297 297 298 299 299 300 299 298 296 295
239 241 242 240 238 238 238 240 242 243 245 247 250 252 254 258 261 263 267 272 276 279 280 282 285 287 287 288 289 290 290 290 291 293 295 295 295 296 296 296 297 296 295 293
237 239 240 241 241 240 239 240 241 242 244 247 251 254 256 258 259 262 265 269 273 274 277 280 283 286 286 286 287 287 287 287 288 289 290 291 292 293 293 294 294 294 292 292
237 239 241 241 241 241 241 242 243 243 244 246 248 251 254 257 259 260 263 267 270 273 276 279 281 282 284 284 284 285 284 283 284 286 286 288 289 290 291 291 291 291 291 291
238 240 241 241 241 242 244 244 245 244 244 245 248 249 252 257 258 260 263 266 269 272 274 276 278 279 280 281 281 281 281 282 283 285 286 287 288 289 290 290 290 290 290 290
237 239 241 243 243 243 245 246 246 246 246 247 250 251 253 255 257 260 263 265 268 271 274 276 278 278 278 279 279 279 279 280 282 283 285 287 288 289 290 290 290 289 289 290
235 238 240 242 243 245 246 248 247 247 248 249 251 254 255 256 259 260 262 264 267 270 272 274 276 277 278 279 279 280 280 280 281 282 284 286 287 288 288 288 289 289 289 290
234 237 239 241 244 246 248 249 250 251 250 251 253 257 258 261 262 263 265 267 268 270 271 273 275 277 278 279 279 279 280 281 281 281 283 284 286 287 287 287 288 289 289 290
235 238 239 241 243 245 248 251 253 253 253 253 255 257 261 262 264 265 265 266 268 269 272 273 275 276 276 277 278 279 280 281 282 282 282 284 284 285 286 287 289 290 290 290
236 238 241 242 243 246 248 251 253 254 254 255 257 259 261 263 264 266 266 266 268 270 272 273 274 275 276 277 277 279 280 281 282 282 283 283 284 285 286 286 287 289 289 290
238 240 242 244 246 249 250 252 254 256 256 258 260 263 264 263 264 264 266 268 270 271 272 273 273 273 275 276 277 279 281 281 282 283 284 285 286 286 286 286 287 288 289 289
241 243 245 247 248 250 251 254 256 257 258 260 262 264 263 263 264 266 268 270 271 271 273 274 274 274 275 276 277 279 281 281 283 284 285 285 285 286 286 287 287 287 287 286
242 243 245 247 248 250 252 254 256 257 259 261 262 263 263 262 264 266 268 271 272 273 274 276 276 276 277 278 278 279 280 281 283 284 284 285 285 285 285 286 286 286 287 286
242 244 246 247 248 249 251 254 255 256 258 260 260 260 261 262 264 266 268 270 272 274 275 276 275 276 277 278 279 280 282 282 283 283 284 284 285 285 285 285 286 287 288 288
243 243 245 246 247 249 251 253 254 255 256 256 257 259 260 262 264 265 268 270 272 273 275 275 275 277 278 279 280 282 283 283 283 284 284 284 284 285 286 286 286 287 287 288
242 241 242 244 246 248 250 251 252 252 254 254 254 256 258 261 264 266 269 271 272 274 276 276 277 279 281 282 283 284 284 284 284 284 284 284 284 284 285 286 286 286 287 287
240 241 243 244 244 247 249 250 249 249 252 253 254 256 257 259 262 266 269 271 272 273 275 278 281 280 282 283 283 284 285 285 285 285 285 285 286 286 286 286 286 286 287 287
238 241 244 245 244 245 248 248 246 249 251 252 255 257 259 262 266 268 270 273 275 278 279 280 281 281 281 283 284 285 286 286 287 287 288 289 289 289 288 288 287 287 288 289
240 240 240 238 239 242 243 243 246 250 252 254 256 259 262 266 270 271 272 276 279 280 281 282 283 284 283 284 285 286 287 288 289 289 290 290 290 290 290 290 290 290 291 291
237 235 237 241 243 241 240 242 244 248 251 255 259 263 266 270 274 274 274 277 280 283 286 286 286 286 286 287 287 288 289 289 290 291 291 291 291 291 291 291 292 292 292 292
Height
5885 5890 5893 5895 5898 5900 5902 5903 5905 5907 5908 5910 5909 5910 5910 5911 5911 5911 5911 5911 5910 5908 5907 5906 5904 5902 5900 5898 5896 5894 5891 5889 5887 5885 5882 5880 5878 5876 5874 5872 5871 5870 5869 5868
5878 5883 5886 5889 5892 5894 5896 5898 5899 5901 5903 5905 5905 5904 5904 5905 5906 5907 5907 5907 5906 5905 5903 5902 5901 5899 5898 5896 5894 5891 5889 5887 5884 5882 5880 5878 5876 5873 5871 5869 5867 5866 5865 5864
5870 5875 5879 5882 5887 5889 5891 5892 5893 5894 5897 5898 5899 5899 5900 5900 5901 5901 5902 5901 5901 5901 5900 5898 5897 5896 5894 5892 5890 5888 5886 5883 5881 5879 5877 5875 5873 5870 5868 5865 5863 5862 5861 5860
5863 5868 5870 5878 5881 5882 5884 5885 5887 5888 5890 5891 5893 5894 5895 5895 5896 5897 5897 5896 5896 5896 5895 5894 5893 5891 5890 5888 5886 5884 5882 5879 5877 5875 5873 5871 5869 5866 5864 5862 5860 5858 5857 5855
5855 5858 5862 5869 5873 5874 5876 5877 5880 5881 5883 5885 5886 5887 5888 5889 5890 5891 5891 5891 5891 5890 5890 5889 5888 5886 5885 5883 5881 5879 5877 5875 5873 5871 5869 5866 5864 5862 5860 5858 5856 5854 5852 5850
5846 5850 5854 5861 5864 5865 5869 5870 5873 5874 5876 5878 5880 5881 5883 5883 5884 5885 5885 5885 5885 5884 5884 5883 5882 5880 5879 5877 5876 5874 5872 5870 5868 5866 5864 5861 5859 5857 5855 5853 5851 5849 5847 5845
5836 5839 5844 5851 5855 5858 5861 5862 5865 5867 5869 5871 5873 5875 5877 5877 5878 5878 5879 5879 5879 5878 5877 5876 5875 5874 5873 5871 5870 5868 5866 5864 5862 5860 5858 5856 5854 5852 5850 5847 5845 5843 5841 5839
5826 5830 5837 5842 5845 5848 5850 5853 5856 5859 5862 5864 5866 5867 5869 5870 5871 5871 5872 5872 5871 5870 5869 5868 5868 5867 5866 5864 5863 5861 5859 5857 5855 5854 5851 5849 5847 5845 5843 5841 5839 5837 5834 5832
5817 5822 5827 5831 5835 5838 5840 5843 5847 5850 5853 5855 5857 5858 5860 5861 5862 5863 5863 5863 5863 5862 5861 5860 5859 5859 5858 5856 5855 5853 5851 5849 5848 5846 5844 5842 5840 5838 5836 5834 5831 5829 5827 5825
5806 5810 5815 5820 5824 5827 5831 5834 5837 5840 5844 5846 5848 5849 5851 5853 5854 5854 5854 5853 5853 5852 5851 5851 5850 5850 5849 5847 5846 5844 5842 5841 5839 5838 5836 5834 5832 5830 5828 5826 5823 5821 5819 5817
5796 5800 5805 5809 5813 5817 5821 5824 5827 5830 5833 5836 5839 5840 5842 5843 5844 5845 5845 5844 5843 5842 5843 5842 5841 5840 5839 5838 5836 5835 5833 5831 5830 5829 5827 5825 5823 5821 5819 5817 5814 5812 5810 5808
5786 5791 5795 5799 5803 5807 5811 5814 5817 5820 5823 5825 5827 5829 5831 5833 5833 5834 5834 5834 5833 5833 5833 5832 5831 5830 5829 5828 5826 5825 5823 5822 5820 5819 5817 5815 5813 5811 5809 5807 5804 5802 5801 5799
5777 5780 5785 5789 5793 5797 5800 5803 5806 5809 5812 5814 5815 5818 5820 5821 5822 5823 5823 5822 5822 5822 5822 5821 5819 5819 5818 5817 5816 5815 5813 5812 5810 5809 5807 5806 5804 5802 5800 5798 5795 5793 5791 5789
5767 5771 5775 5779 5783 5787 5790 5793 5795 5798 5800 5803 5805 5806 5808 5809 5810 5810 5810 5811 5811 5811 5811 5810 5809 5808 5807 5806 5805 5804 5803 5802 5800 5799 5798 5796 5794 5792 5790 5787 5786 5783 5781 5779
5759 5763 5766 5770 5773 5776 5780 5782 5784 5786 5789 5792 5794 5795 5796 5798 5799 5799 5799 5800 5800 5800 5799 5799 5798 5797 5796 5795 5795 5793 5792 5791 5789 5788 5787 5785 5783 5781 5779 5777 5775 5773 5771 5768
5749 5753 5757 5760 5763 5766 5769 5772 5774 5776 5778 5781 5783 5784 5785 5787 5787 5787 5787 5788 5788 5788 5788 5787 5787 5786 5785 5785 5784 5782 5781 5780 5778 5777 5776 5774 5772 5770 5768 5766 5764 5762 5760 5757
5741 5744 5747 5750 5753 5756 5759 5762 5763 5765 5766 5769 5771 5772 5774 5775 5776 5775 5776 5776 5776 5777 5776 5776 5776 5775 5774 5773 5773 5772 5770 5769 5768 5766 5764 5763 5761 5759 5758 5756 5753 5751 5749 5746
5731 5734 5738 5741 5744 5746 5749 5751 5752 5754 5756 5758 5760 5761 5763 5764 5764 5765 5765 5765 5765 5765 5765 5764 5764 5764 5763 5762 5762 5761 5759 5758 5757 5755 5753 5751 5750 5748 5746 5744 5742 5740 5738 5735
5722 5725 5728 5731 5734 5736 5738 5740 5741 5743 5745 5747 5749 5750 5751 5752 5753 5754 5754 5754 5754 5754 5754 5753 5752 5752 5752 5751 5750 5749 5748 5747 5745 5744 5742 5740 5739 5737 5735 5733 5730 5728 5726 5724
5713 5716 5718 5721 5723 5725 5727 5729 5731 5733 5734 5736 5737 5739 5740 5741 5742 5743 5743 5743 5743 5743 5742 5742 5742 5741 5740 5740 5739 5738 5737 5735 5734 5733 5731 5729 5728 5726 5724 5722 5719 5717 5715 5712
5705 5707 5709 5711 5713 5715 5716 5718 5720 5723 5724 5725 5727 5729 5730 5731 5732 5733 5733 5733 5733 5732 5732 5731 5731 5730 5729 5728 5727 5727 5726 5725 5723 5722 5720 5718 5717 5714 5712 5710 5708 5706 5704 5702
5697 5699 5701 5703 5705 5706 5708 5710 5711 5713 5715 5716 5718 5719 5720 5722 5723 5723 5723 5723 5723 5723 5722 5722 5721 5720 5719 5718 5718 5717 5715 5714 5713 5711 5709 5708 5706 5704 5702 5700 5698 5695 5693 5691
5690 5692 5694 5696 5698 5699 5701 5702 5704 5705 5707 5708 5710 5711 5712 5713 5714 5714 5714 5714 5714 5713 5713 5712 5712 5711 5710 5709 5708 5707 5705 5704 5702 5701 5699 5697 5695 5693 5692 5689 5687 5685 5683 5680
5685 5687 5688 5690 5692 5693 5695 5696 5697 5698 5700 5701 5702 5703 5704 5705 5705 5706 5706 5705 5705 5704 5704 5703 5703 5702 5701 5700 5699 5697 5696 5694 5693 5691 5689 5687 5685 5683 5681 5679 5677 5674 5672 5670
5681 5682 5684 5685 5687 5688 5689 5690 5692 5693 5693 5695 5695 5696 5697 5698 5699 5698 5698 5698 5697 5697 5696 5696 5695 5693 5692 5691 5690 5688 5687 5685 5683 5681 5679 5677 5675 5673 5671 5669 5666 5664 5662 5660
5677 5679 5680 5681 5682 5683 5685 5686 5687 5687 5688 5689 5690 5690 5691 5691 5692 5692 5691 5691 5690 5690 5689 5688 5687 5686 5685 5683 5682 5680 5679 5677 5675 5673 5670 5668 5666 5663 5661 5659 5657 5654 5652 5649
5675 5676 5677 5678 5679 5680 5681 5682 5683 5684 5684 5684 5685 5685 5685 5686 5686 5685 5685 5685 5684 5684 5682 5681 5680 5678 5677 5675 5674 5672 5670 5668 5666 5664 5662 5659 5657 5654 5652 5649 5647 5644 5642 5640